When you browse on this site, cookies collect data to enhance your experience and personalize the content and advertising you see.
Visit our Privacy Policy to learn more. By continuing to use the site, you agree to this use of cookies and data.
  • In United Kingdom
  • List of Countries
  • For 7 days
  • Water Temperature
  • Weather Map
  • Weather Widgets
  • user-avatar
    Login

    Hourly Weather Brownhills

    Today, 30 March, Monday

    Time Temperature Precipitation Wind Pressure Humidity
    00:00 -2°C° 0 mm 3 mps 766 mmHg 76%
    01:00 -2°C° 0 mm 3 mps 766 mmHg 75%
    02:00 -2°C° 0 mm 3 mps 765 mmHg 75%
    03:00 -2°C° 0 mm 2 mps 764 mmHg 74%
    04:00 -1°C° 0 mm 3 mps 764 mmHg 76%
    05:00 -1°C° 0 mm 3 mps 764 mmHg 77%
    06:00 -1°C° 0 mm 3 mps 764 mmHg 78%
    07:00 0°C° 0 mm 4 mps 763 mmHg 75%
    08:00 +3°C° 0 mm 4 mps 763 mmHg 71%
    09:00 +5°C° 0 mm 5 mps 763 mmHg 68%
    10:00 +5°C° 0 mm 5 mps 762 mmHg 67%
    11:00 +5°C° 0 mm 6 mps 762 mmHg 67%
    12:00 +5°C° 0 mm 6 mps 762 mmHg 66%
    13:00 +5°C° 0.1 mm 6 mps 762 mmHg 67%
    14:00 +5°C° 0.1 mm 6 mps 761 mmHg 68%
    15:00 +7°C° 0.1 mm 6 mps 761 mmHg 68%
    16:00 +6°C° 0.1 mm 5 mps 761 mmHg 71%
    17:00 +5°C° 0.1 mm 5 mps 761 mmHg 74%
    18:00 +5°C° 0.1 mm 4 mps 761 mmHg 77%
    19:00 +4°C° 0 mm 4 mps 761 mmHg 81%
    20:00 +3°C° 0 mm 4 mps 761 mmHg 84%
    21:00 +1°C° 0 mm 4 mps 761 mmHg 87%
    22:00 +1°C° 0 mm 3 mps 761 mmHg 89%
    23:00 +1°C° 0 mm 3 mps 761 mmHg 90%

    Tomorrow, 31 March, Tuesday

    Time Temperature Precipitation Wind Pressure Humidity
    00:00 +1°C° 0 mm 3 mps 761 mmHg 92%
    01:00 0°C° 0 mm 3 mps 761 mmHg 93%
    02:00 0°C° 0 mm 3 mps 761 mmHg 93%
    03:00 0°C° 0 mm 3 mps 761 mmHg 94%
    04:00 0°C° 0 mm 3 mps 761 mmHg 94%
    05:00 0°C° 0 mm 3 mps 761 mmHg 94%
    06:00 0°C° 0 mm 3 mps 761 mmHg 94%
    07:00 0°C° 0 mm 4 mps 761 mmHg 88%
    08:00 +3°C° 0 mm 4 mps 761 mmHg 81%
    09:00 +3°C° 0 mm 5 mps 761 mmHg 74%
    10:00 +5°C° 0 mm 4 mps 761 mmHg 69%
    11:00 +6°C° 0 mm 4 mps 761 mmHg 63%
    12:00 +8°C° 0 mm 4 mps 761 mmHg 57%
    13:00 +9°C° 0 mm 3 mps 761 mmHg 56%
    14:00 +9°C° 0 mm 3 mps 760 mmHg 55%
    15:00 +10°C° 0 mm 3 mps 760 mmHg 54%
    16:00 +9°C° 0 mm 3 mps 759 mmHg 60%
    17:00 +8°C° 0 mm 3 mps 759 mmHg 65%
    18:00 +7°C° 0 mm 2 mps 759 mmHg 70%
    19:00 +6°C° 0 mm 2 mps 759 mmHg 73%
    20:00 +5°C° 0 mm 2 mps 759 mmHg 76%
    21:00 +4°C° 0 mm 1 mps 759 mmHg 79%
    22:00 +4°C° 0 mm 1 mps 759 mmHg 80%
    23:00 +4°C° 0 mm 1 mps 758 mmHg 82%

    Day after tomorrow, 1 April, Wednesday

    Time Temperature Precipitation Wind Pressure Humidity
    00:00 +3°C° 0 mm 1 mps 758 mmHg 84%
    01:00 +3°C° 0 mm 1 mps 757 mmHg 85%
    02:00 +3°C° 0 mm 1 mps 757 mmHg 86%
    03:00 +3°C° 0 mm 1 mps 756 mmHg 86%
    04:00 +2°C° 0 mm 2 mps 756 mmHg 86%
    05:00 +2°C° 0 mm 2 mps 756 mmHg 86%
    06:00 +2°C° 0 mm 2 mps 756 mmHg 86%
    07:00 +2°C° 0 mm 3 mps 755 mmHg 80%
    08:00 +3°C° 0 mm 3 mps 755 mmHg 75%
    09:00 +4°C° 0 mm 4 mps 755 mmHg 70%
    10:00 +5°C° 0 mm 4 mps 754 mmHg 67%
    11:00 +6°C° 0 mm 4 mps 754 mmHg 65%
    12:00 +7°C° 0 mm 4 mps 754 mmHg 62%
    13:00 +7°C° 0 mm 5 mps 754 mmHg 62%
    14:00 +7°C° 0 mm 5 mps 753 mmHg 63%
    15:00 +7°C° 0 mm 5 mps 753 mmHg 63%
    16:00 +6°C° 0 mm 5 mps 752 mmHg 65%
    17:00 +6°C° 0 mm 4 mps 752 mmHg 68%
    18:00 +5°C° 0 mm 4 mps 752 mmHg 70%
    19:00 +4°C° 0 mm 3 mps 752 mmHg 74%
    20:00 +3°C° 0 mm 3 mps 752 mmHg 78%
    21:00 +3°C° 0 mm 3 mps 752 mmHg 82%
    22:00 +2°C° 0 mm 3 mps 752 mmHg 85%
    23:00 +1°C° 0 mm 3 mps 751 mmHg 88%

    2 April, Thursday

    Time Temperature Precipitation Wind Pressure Humidity
    00:00 +1°C° 0 mm 3 mps 751 mmHg 91%
    01:00 +1°C° 0 mm 3 mps 751 mmHg 91%
    02:00 +1°C° 0 mm 3 mps 750 mmHg 92%
    03:00 +1°C° 0 mm 3 mps 750 mmHg 92%
    04:00 +1°C° 0 mm 3 mps 750 mmHg 91%
    05:00 +2°C° 0 mm 3 mps 749 mmHg 89%
    06:00 +2°C° 0 mm 3 mps 749 mmHg 88%
    07:00 +3°C° 0 mm 3 mps 749 mmHg 84%
    08:00 +5°C° 0 mm 4 mps 749 mmHg 80%
    09:00 +7°C° 0 mm 5 mps 748 mmHg 76%
    10:00 +7°C° 0.1 mm 5 mps 748 mmHg 75%
    11:00 +8°C° 0.1 mm 6 mps 747 mmHg 74%
    12:00 +8°C° 0.1 mm 6 mps 747 mmHg 73%
    13:00 +8°C° 0.1 mm 6 mps 747 mmHg 74%
    14:00 +8°C° 0.1 mm 6 mps 746 mmHg 76%
    15:00 +7°C° 0.1 mm 6 mps 746 mmHg 77%
    16:00 +7°C° 0 mm 6 mps 746 mmHg 79%
    17:00 +7°C° 0 mm 6 mps 746 mmHg 81%
    18:00 +7°C° 0 mm 5 mps 746 mmHg 82%
    19:00 +5°C° 0 mm 5 mps 746 mmHg 82%
    20:00 +3°C° 0 mm 5 mps 747 mmHg 81%
    21:00 +3°C° 0 mm 4 mps 747 mmHg 81%
    22:00 +1°C° 0 mm 4 mps 748 mmHg 81%
    23:00 0°C° 0 mm 4 mps 748 mmHg 82%

    3 April, Friday

    Time Temperature Precipitation Wind Pressure Humidity
    00:00 +1°C° 0 mm 3 mps 749 mmHg 82%
    01:00 0°C° 0 mm 3 mps 749 mmHg 83%
    02:00 -1°C° 0 mm 3 mps 749 mmHg 84%
    03:00 -1°C° 0 mm 2 mps 749 mmHg 85%
    04:00 -1°C° 0 mm 2 mps 750 mmHg 85%
    05:00 -1°C° 0 mm 2 mps 750 mmHg 86%
    06:00 -2°C° 0 mm 2 mps 751 mmHg 86%
    07:00 +1°C° 0 mm 2 mps 751 mmHg 78%
    08:00 +3°C° 0 mm 2 mps 751 mmHg 70%
    09:00 +5°C° 0 mm 2 mps 752 mmHg 62%
    10:00 +6°C° 0 mm 2 mps 752 mmHg 57%
    11:00 +9°C° 0 mm 1 mps 752 mmHg 52%
    12:00 +10°C° 0 mm 1 mps 752 mmHg 47%
    13:00 +10°C° 0 mm 1 mps 752 mmHg 47%
    14:00 +10°C° 0 mm 1 mps 752 mmHg 46%
    15:00 +10°C° 0 mm 1 mps 752 mmHg 45%
    16:00 +10°C° 0 mm 1 mps 752 mmHg 52%
    17:00 +9°C° 0 mm 1 mps 752 mmHg 58%
    18:00 +8°C° 0 mm 1 mps 752 mmHg 65%
    19:00 +7°C° 0 mm 1 mps 752 mmHg 68%
    20:00 +5°C° 0 mm 1 mps 753 mmHg 71%
    21:00 +4°C° 0 mm 1 mps 753 mmHg 74%
    22:00 +3°C° 0 mm 2 mps 753 mmHg 75%
    23:00 +3°C° 0 mm 2 mps 753 mmHg 77%

    4 April, Saturday

    Time Temperature Precipitation Wind Pressure Humidity
    00:00 +2°C° 0 mm 2 mps 753 mmHg 78%
    01:00 +1°C° 0 mm 3 mps 753 mmHg 81%
    02:00 +1°C° 0 mm 3 mps 752 mmHg 83%
    03:00 +1°C° 0 mm 3 mps 752 mmHg 86%
    04:00 +1°C° 0 mm 3 mps 752 mmHg 87%
    05:00 0°C° 0 mm 3 mps 752 mmHg 87%
    06:00 +1°C° 0 mm 2 mps 752 mmHg 88%
    07:00 +2°C° 0 mm 3 mps 752 mmHg 84%
    08:00 +3°C° 0 mm 3 mps 752 mmHg 80%
    09:00 +5°C° 0 mm 3 mps 752 mmHg 76%
    10:00 +7°C° 0 mm 3 mps 752 mmHg 73%
    11:00 +7°C° 0 mm 4 mps 751 mmHg 70%
    12:00 +8°C° 0 mm 4 mps 751 mmHg 67%
    13:00 +10°C° 0 mm 4 mps 751 mmHg 66%
    14:00 +10°C° 0 mm 3 mps 751 mmHg 66%
    15:00 +11°C° 0 mm 3 mps 750 mmHg 66%
    16:00 +10°C° 0 mm 3 mps 750 mmHg 70%
    17:00 +10°C° 0 mm 2 mps 750 mmHg 74%
    18:00 +10°C° 0 mm 1 mps 750 mmHg 78%
    19:00 +9°C° 0 mm 1 mps 751 mmHg 82%
    20:00 +7°C° 0 mm 2 mps 751 mmHg 85%
    21:00 +6°C° 0 mm 2 mps 751 mmHg 89%
    22:00 +6°C° 0 mm 2 mps 751 mmHg 90%
    23:00 +5°C° 0 mm 2 mps 751 mmHg 91%
    Show more